Regional Weather Roundup
Issued by NWS

Home | Current Version | Previous Version | Graphics & Text | Print | Product List | Glossary On
Versions: 1 2 3 4 5 6 7 8 9 10 11 12 13 14 15 16 17 18 19 20 21 22 23 24 25 26 27 28 29 30 31 32 33 34 35 36 37 38 39 40 41 42 43 44 45 46 47 48 49 50
000
ASUS43 KDMX 010707
RWRIA

WEATHER ROUNDUP FOR IOWA
NATIONAL WEATHER SERVICE DES MOINES IA
200 AM CDT SAT AUG 01 2015

NOTE: "FAIR" INDICATES FEW OR NO CLOUDS BELOW 12,000 FEET WITH NO
SIGNIFICANT WEATHER AND/OR OBSTRUCTIONS TO VISIBILITY.

* - THESE STATIONS ARE NOT NWS STATIONS...THUS NOT UNDER NWS
QUALITY CONTROL.  THEY ALSO DO NOT REPORT WEATHER SUCH
AS PRECIPITATION OR FOG.

IAZ001>003-012>014-020>022-031>034-043>046-010800-
   NORTHWEST IOWA

CITY           SKY/WX    TMP DP  RH WIND       PRES   REMARKS
CARROLL *      CLEAR     68  64  88 CALM      30.08S
CHEROKEE *     CLEAR     63  63 100 S3        30.07F
DENISON *      PTCLDY    66  64  94 NE3       30.06F
LE MARS *      CLEAR     64  64 100 S5        30.08F
ORANGE CITY *  CLEAR     64  63  94 S5        30.07F
SHELDON *      CLEAR     66  61  82 SW6       30.05F
SIOUX CITY     CLEAR     69  64  84 S5        30.07F
SPENCER        CLEAR     63  57  81 SW7       30.06F
STORM LAKE *   CLEAR     64  61  88 S7        30.09S
$$

IAZ055>058-069>071-079>083-090>094-010800-
   SOUTHWEST IOWA

CITY           SKY/WX    TMP DP  RH WIND       PRES   REMARKS
ATLANTIC *     MOCLDY    68  68 100 SW6       30.08S
AUDUBON *      CLEAR     66  64  94 CALM      30.09F
CLARINDA *     PTCLDY    68  68 100 NE5       30.09R
COUNCIL BLFS * PTCLDY    70  66  88 S6        30.08F
CRESTON *      CLEAR     68  64  88 CALM      30.09F
HARLAN  *      CLEAR     66  66 100 CALM      30.11F
LAMONI         CLEAR     68  65  90 N3        30.07F
RED OAK *      PTCLDY    68  66  94 CALM      30.08F
SHENANDOAH *     N/A     68  68 100 NE6       30.07S
$$

IAZ047>049-059>061-072>074-084-010800-
   CENTRAL IOWA

CITY           SKY/WX    TMP DP  RH WIND       PRES   REMARKS
AMES           CLEAR     62  60  93 CALM      30.06F
ANKENY *       CLEAR     64  64 100 CALM      30.06F
CHARITON *     PTCLDY    70  68  94 NE5       30.08S
DES MOINES     PTCLDY    72  64  76 SW3       30.06F
GRINNELL*      CLEAR     61  59  94 CALM      30.07F
KNOXVILLE *    CLEAR     68  64  88 CALM      30.05F
MARSHALLTOWN     N/A     63  62  97 CALM      30.06F
PELLA *        CLEAR     66  66 100 CALM      30.06F
PERRY *          N/A     68  64  88 S6        30.07F
$$

IAZ004>006-015-016-023>025-035-036-010800-
   NORTH CENTRAL IOWA

CITY           SKY/WX    TMP DP  RH WIND       PRES   REMARKS
ALGONA *       CLEAR     63  59  88 S7        30.06F
CLARION *      CLEAR     61  59  94 S5        30.06S
ESTHERVILLE    CLEAR     63  59  87 SW8       30.04F
FORT DODGE *   CLEAR     63  57  82 S3        30.07F
MASON CITY     CLEAR     59  57  93 S3        30.07S
FOREST CITY *  CLEAR     57  57 100 CALM      30.05F
IOWA FALLS *     N/A     63  57  82 SW5       30.07F
$$

IAZ007>011-017>019-026>030-037>042-050>054-066-010800-
   NORTHEAST IOWA

CITY           SKY/WX    TMP DP  RH WIND       PRES   REMARKS
CEDAR RAPIDS   CLEAR     64  61  90 NW6       30.05F
CHARLES CITY * PTCLDY    61  61 100 SW3       30.06F
CLINTON *      CLEAR     61  57  88 NW7       30.06F
DECORAH *      MOCLDY    64  59  82 W5        30.04S
DUBUQUE        CLEAR     60  57  89 CALM      30.05S
MONTICELLO *   CLEAR     57  57 100 CALM      30.05S
OELWEIN *        N/A     61  59  94 SW3       30.06F
WATERLOO       CLEAR     61  58  90 CALM      30.04F
$$

IAZ064-065-067-068-078-010800-
   EAST CENTRAL IOWA

CITY           SKY/WX    TMP DP  RH WIND       PRES   REMARKS
DAVENPORT      CLEAR     61  58  90 W5        30.05S
IOWA CITY      CLEAR     63  60  90 SW3       30.06F
MT. PLEASANT * CLEAR     66  61  82 CALM      30.06F
MUSCATINE *    CLEAR     64  57  77 CALM      30.05S
QUAD CITIES    CLEAR     62  58  86 CALM      30.04F
$$

IAZ062-063-075>077-085>089-095>099-010800-
   SOUTHEAST IOWA

CITY           SKY/WX    TMP DP  RH WIND       PRES   REMARKS
BURLINGTON     CLEAR     64  61  90 N6        30.05F
FAIRFIELD *    MOCLDY    66  63  88 CALM      30.06F
FORT MADISON * CLEAR     66  63  88 CALM      30.06F
KEOKUK *       MOCLDY    70  68  94 N3        30.04F
OSKALOOSA *      N/A     63  63 100 CALM      30.06F
CENTERVILLE *  PTCLDY    70  68  94 SE3       30.08S
OTTUMWA        MOCLDY    68  66  93 CALM      30.04F
WASHINGTON *   CLEAR     63  61  94 W5        30.07S
$$

ABBREVIATIONS USED IN REMARKS
   TC - TEMPERATURES IN CELSIUS
  WCI - WIND CHILL INDEX
   HX - HEAT INDEX
  VSB - VISIBILITY
$$




USA.gov is the U.S. government's official web portal to all federal, state and local government web resources and services.